Regional Weather Roundup
Issued by NWS Raleigh/Durham, NC

Home | Current Version | Previous Version | Text Only | Print | Product List | Glossary On
Versions: 1 2 3 4 5 6 7 8 9 10 11 12 13 14 15 16 17 18 19 20 21 22 23 24 25 26 27 28 29 30 31 32 33 34 35 36 37 38 39 40 41 42 43 44 45 46 47 48 49 50
000
ASUS42 KRAH 070310
RWRRAH
NORTH CAROLINA WEATHER ROUNDUP
NATIONAL WEATHER SERVICE RALEIGH NC
1100 PM EDT WED MAY 06 2015

NOTE: "FAIR" INDICATES FEW OR NO CLOUDS BELOW 12,000 FEET WITH NO
SIGNIFICANT WEATHER AND/OR OBSTRUCTIONS TO VISIBILITY.

NCZ001-053-055-056-065-067-070400-
WESTERN NORTH CAROLINA

CITY           SKY/WX    TMP DP  RH WIND       PRES   REMARKS
ASHEVILLE      PTCLDY    62  51  67 CALM      30.21R
JEFFERSON      PTCLDY    62  52  68 CALM      30.26R
MORGANTON      PTCLDY    61  56  86 N3        30.21S
HICKORY        PTCLDY    68  54  60 CALM      30.17R
RUTHERFORDTON  PTCLDY    65  55  70 CALM      30.17S
MOUNT AIRY     PTCLDY    73  60  65 E3        30.20S
BOONE          PTCLDY    57  49  75 CALM      30.27R
$$

NCZ021-022-025-041-071-084-088-070400-
CENTRAL NORTH CAROLINA

CITY           SKY/WX    TMP DP  RH WIND       PRES   REMARKS
CHARLOTTE      PTCLDY    73  50  44 E8        30.16R
GREENSBORO     PTCLDY    69  54  58 S6        30.16S
WINSTON-SALEM  PTCLDY    68  56  65 CALM      30.17S
RALEIGH-DURHAM MOCLDY    67  53  61 CALM      30.17R
FORT BRAGG     MOCLDY    63  57  80 NE2       30.15S
FAYETTEVILLE   MOCLDY    63  53  70 CALM      30.15R
BURLINGTON     MOCLDY    64  58  80 CALM      30.16S
LAURINBURG     MOCLDY    64  55  72 SE5       30.16R
$$

NCZ011-015-027-028-043-044-047-080-103-070400-
NORTHEASTERN NORTH CAROLINA

CITY           SKY/WX    TMP DP  RH WIND       PRES   REMARKS
ROCKY MT-WILSO CLOUDY    62  55  77 CALM      30.17R
GREENVILLE     CLOUDY    63  59  88 CALM      30.18S
WASHINGTON     CLOUDY    61  57  88 N3        30.17S
ELIZABETH CITY CLOUDY    64  58  80 CALM      30.18S
MANTEO         CLOUDY    65  62  90 E7        30.18S
CAPE HATTERAS  CLOUDY    64  56  75 E6        30.15F
$$

NCZ078-087-090-091-093-098-101-070400-
SOUTHEASTERN NORTH CAROLINA

CITY           SKY/WX    TMP DP  RH WIND       PRES   REMARKS
LUMBERTON      MOCLDY    60  56  86 CALM      30.14R
GOLDSBORO      MOCLDY    62  56  81 NE2       30.15R
KINSTON        MOCLDY    63  57  83 N3        30.17S
KENANSVILLE    CLOUDY    61  56  84 CALM      30.16S
NEW BERN       CLOUDY    65  59  81 NE6       30.15S
CHERRY POINT   CLOUDY    67  61  81 NE9       30.14F
BEAUFORT       CLOUDY    66  59  78 NE6       30.13S
JACKSONVILLE   CLOUDY    67  59  75 NE8       30.13S
WILMINGTON     CLOUDY    65  58  78 NE9       30.12S
$$



USA.gov is the U.S. government's official web portal to all federal, state and local government web resources and services.